Location: Unspecified
(48.9757°N, 0.0000°E)
Time: 10:29:33
(UTC+00:00)

ISS - Visible Passes

Search period start: 21 October 2019 00:00
Search period end: 31 October 2019 00:00
Orbit: 411 x 421 km, 51.6° (Epoch: 21 October)

Date Brightness Start Highest point End Pass type
(mag) Time Alt. Az. Time Alt. Az. Time Alt. Az.
23 Oct -0.4 05:38:09 10° SSE 05:38:57 11° SE 05:39:45 10° ESE visible
25 Oct -1.4 05:35:20 10° SSW 05:38:05 23° SE 05:40:51 10° E visible
26 Oct -0.9 04:47:34 10° S 04:49:40 16° SE 04:51:46 10° E visible
27 Oct -2.9 05:34:06 10° SW 05:37:21 48° SSE 05:40:38 10° ENE visible
28 Oct -2.3 04:47:32 24° S 04:48:50 33° SE 04:51:53 10° E visible
29 Oct -1.2 04:01:15 20° ESE 04:01:15 20° ESE 04:03:00 10° E visible
29 Oct -3.8 05:34:09 16° WSW 05:36:45 90° NW 05:40:08 10° ENE visible
30 Oct -3.6 04:47:44 59° SSW 04:48:06 66° SSE 04:51:28 10° ENE visible
